Location: Fort Collins
(40.5850°N, 105.0840°W)
Time: 02:37:23
(UTC-06:00)

Daily predictions for brighter satellites

Satellite Brightness Start Highest point End
(mag) Time Altitude Azimuth Time Altitude Azimuth Time Altitude Azimuth
CZ-4B R/B 4.4 00:04:45 12° NNE 00:04:45 12° NNE 00:05:04 10° NNE
Gbstr 26 Del rocket 4.3 00:02:26 10° NW 00:05:19 36° NW 00:05:19 36° NW
Cosmos 1400 Rocket 4.4 00:11:14 35° NNW 00:11:14 35° NNW 00:13:59 10° N
Cosmos 1536 4.5 00:12:05 32° NNW 00:12:05 32° NNW 00:14:29 10° N
Meteor 2-15 Rocket 4.3 00:11:19 10° N 00:17:26 85° W 00:17:26 85° W
NOSS 3-1 (A) 3.9 00:14:46 10° NW 00:22:26 84° WSW 00:23:39 68° SSE
Cosmos 2369 Rocket 2.3 00:23:58 72° NNW 00:23:58 72° NNW 00:29:16 10° NNE
Cosmos 1447 Rocket 4.5 00:18:34 10° N 00:24:37 68° ENE 00:24:37 68° ENE
Meteor 1-23 Rocket 4.5 00:20:56 10° NNW 00:25:57 60° WNW 00:25:57 60° WNW
H-2A R/B 4.0 00:21:57 10° NNE 00:24:44 36° NNE 00:24:44 36° NNE
CZ-2C R/B 3.8 00:29:56 10° NNE 00:33:24 32° ENE 00:33:24 32° ENE
Cosmos 2100 Rocket 4.3 00:37:27 55° E 00:37:27 55° E 00:43:23 10° NNE
ATLAS 2AS CENTAUR R/B 3.4 00:35:44 10° NNW 00:43:45 59° NE 00:46:07 44° ESE
MOS 1-B Rocket 4.0 00:45:51 79° E 00:45:55 79° ENE 00:52:42 10° NNW
Cosmos 1818 4.1 00:47:22 55° NE 00:47:22 55° NE 00:51:37 10° NNE
NOSS 3-1 (C) 4.4 00:45:07 10° NW 00:52:25 47° WSW 00:52:31 47° WSW
Cosmos 2061 Rocket 4.1 00:53:10 67° E 00:53:10 67° E 00:59:21 10° NNE
Cosmos 1459 Rocket 4.0 00:53:47 67° ENE 00:53:47 67° ENE 00:59:23 10° NNE
USA 234 4.5 00:48:24 10° NE 00:54:20 39° NNW 01:00:15 10° W
Cosmos 2016 Rocket 4.4 00:56:08 49° ENE 00:56:08 49° ENE 01:01:35 10° NNE
Cosmos 1943 Rocket 2.5 01:00:09 62° NNE 01:00:09 62° NNE 01:04:48 10° NNE
ISS 0.1 01:01:13 10° NNW 01:02:35 12° N 01:02:38 12° N
Cosmos 1802 Rocket 4.0 01:04:04 70° ENE 01:04:04 70° ENE 01:10:00 10° NNE
ALOS 2 4.5 01:08:39 25° NW 01:08:39 25° NW 01:10:51 10° NNW
Cosmos 2173 Rocket 3.9 01:14:29 82° NW 01:14:29 82° NW 01:20:41 10° N
Lacrosse 5 rocket 4.0 01:19:38 13° NW 01:20:27 14° NNW 01:22:23 10° N
Cosmos 1725 Rocket 4.1 01:32:12 66° E 01:32:12 66° E 01:38:10 10° NNE
Lacrosse 5 4.1 01:35:50 12° WNW 01:39:17 21° NNW 01:43:09 10° NNE
SeaSat 1 3.4 01:40:59 39° ENE 01:41:20 40° ENE 01:45:56 10° NNW
BREEZE-M DEB (TANK) 3.8 01:38:29 10° WNW 01:42:41 84° NE 02:00:06 10° ESE
Tsikada Rocket 3.9 01:39:25 10° N 01:45:45 78° E 01:45:55 78° ESE
BREEZE-M DEB (TANK) 4.2 01:33:04 10° WNW 01:49:14 61° NNE 01:52:03 24° E
ATLAS 3B CENTAUR R/B 4.5 01:47:41 46° SSW 01:51:11 52° SSE 02:20:51 10° E
CZ-2C R/B 4.0 02:02:04 37° NW 02:02:04 37° NW 02:05:21 10° NNW
Meteor 1-21 4.3 01:58:01 10° NNW 02:03:00 66° NW 02:03:00 66° NW
Cosmos 2058 Rocket 4.1 02:05:01 45° N 02:05:01 45° N 02:08:08 10° N
Cosmos 1570 Rocket 4.2 02:05:22 71° NNE 02:05:22 71° NNE 02:10:08 10° NNE
NOSS 3-3 (A) 4.1 02:12:16 61° W 02:13:02 66° NW 02:19:44 10° NNE
NOSS 3-3 (C) 4.1 02:12:22 61° W 02:13:07 67° NW 02:19:49 10° NNE
CZ-2C R/B 4.0 02:10:31 10° N 02:14:53 27° WNW 02:14:55 27° WNW
Meteor 2-9 Rocket 4.2 02:15:38 89° W 02:15:38 89° W 02:21:28 10° N
Cosmos 2346 Rocket 4.5 02:12:10 10° N 02:18:27 74° E 02:19:18 64° SE
Cosmos 2219 4.1 02:14:50 10° NW 02:18:42 37° WNW 02:18:42 37° WNW
Cosmos 2227 Rocket 2.8 02:17:26 10° NNW 02:22:59 52° ENE 02:24:42 39° ESE
Meteor 1-15 Rocket 4.1 02:23:25 85° WSW 02:23:33 86° WNW 02:29:28 10° N
ATLAS CENTAUR R/B 3.1 02:24:30 32° E 02:24:30 32° E 02:28:20 10° NE
Cosmos 44 4.1 02:20:38 10° NW 02:24:18 45° NW 02:24:18 45° NW
BREEZE-M R/B 4.4 02:20:45 10° NW 02:28:14 69° NNE 02:34:14 10° ESE
ARIANE 5 R/B 4.5 02:29:43 10° NE 02:33:19 19° E 02:34:57 17° ESE
SL-08 R/B 3.8 02:33:19 51° E 02:33:38 52° ENE 02:38:09 10° N
ATLAS 2AS CENTAUR R/B 3.8 02:27:26 10° NW 02:33:30 33° W 02:33:30 33° W
BREEZE-M DEB (TANK) 4.3 02:36:01 19° NE 02:36:01 19° NE 02:37:03 10° ENE
Cosmos 1464 Rocket 4.3 02:34:17 48° SE 02:35:39 59° E 02:41:52 10° NNE
Resurs 1-4 Rocket 4.3 02:33:13 10° NE 02:36:19 16° E 02:38:40 12° ESE
Cosmos 2233 Rocket 4.0 02:36:46 60° WSW 02:37:12 62° W 02:43:16 10° N
ISS -0.7 02:41:16 18° ENE 02:41:16 18° ENE 02:42:36 10° E
Cosmos 2278 3.5 02:40:47 78° SSE 02:41:06 83° ESE 02:46:48 10° NNE
Cosmos 2369 3.6 02:42:24 72° SSE 02:42:47 76° ESE 02:48:27 10° NNE
Cosmos 1943 Rocket 4.3 02:41:39 13° WNW 02:43:43 15° NW 02:46:53 10° NNW
Cosmos 2297 Rocket 2.7 02:38:45 10° NNW 02:44:19 55° ENE 02:47:02 29° SE
NPP 3.6 02:40:56 10° NNE 02:46:20 74° ESE 02:46:51 68° SSE
Cosmos 405 Rocket 3.5 02:46:23 10° N 02:49:57 53° NE 02:49:57 53° NE
Cosmos 1814 Rocket 4.1 02:56:39 58° SE 02:57:20 64° ESE 03:02:39 10° NNE
CBERS-1 3.9 02:54:13 10° NNE 02:59:22 83° E 02:59:56 71° S
BREEZE-M DEB (TANK) 3.9 02:55:31 10° WNW 02:58:52 29° NW 02:58:52 29° NW
Cosmos 220 Rocket 4.1 02:56:39 10° NNW 03:00:31 70° N 03:00:31 70° N
Cosmos 2298 Rocket 3.9 02:56:31 10° NNW 03:01:51 84° WSW 03:02:30 69° S
Cosmos 1513 Rocket 4.4 03:03:06 51° S 03:04:43 81° E 03:10:47 10° N
ERS-2 2.6 03:05:19 10° NNE 03:08:38 57° ENE 03:08:38 57° ENE
USA 161 3.6 03:11:10 27° NE 03:11:10 27° NE 03:13:00 10° N
Meteor 1-24 Rocket 4.1 03:09:36 10° N 03:15:18 64° E 03:18:44 25° SSE
SeaSat 1 4.0 03:20:46 21° WNW 03:20:46 21° WNW 03:23:05 10° NW
IRAS Rocket 4.2 03:13:29 10° NNE 03:19:07 77° WNW 03:20:32 51° SW
Cosmos 990 Rocket 4.3 03:15:25 10° NNW 03:20:39 66° ENE 03:24:09 21° SSE
Cosmos 858 Rocket 4.4 03:16:15 10° NNW 03:21:28 71° WSW 03:22:27 56° SSW
Cosmos 1891 Rocket 4.3 03:20:17 48° SSW 03:22:04 78° W 03:28:13 10° N
Cosmos 468 Rocket 4.0 03:21:35 55° WSW 03:22:26 64° WNW 03:27:35 10° NNE
Okean O Rocket 4.2 03:22:29 10° ENE 03:24:46 14° E 03:27:01 10° ESE
Cosmos 1656 3.6 03:24:57 50° SSW 03:26:32 86° WNW 03:32:13 10° NNE
NOSS 2-1 (D) 3.8 03:27:08 47° WNW 03:27:26 48° NW 03:31:46 10° NNE
Cosmos 1953 4.0 03:26:54 20° SE 03:28:41 28° E 03:32:13 10° NNE
NOSS 2-1 (C) 3.8 03:28:29 47° WNW 03:28:50 48° NW 03:33:09 10° NNE
Cosmos 1707 3.2 03:27:36 10° NNW 03:30:56 48° WNW 03:30:56 48° WNW
Cosmos-2242 4.4 03:29:53 22° SE 03:31:59 34° E 03:35:51 10° NNE
SME Rocket 4.3 03:31:25 21° SSE 03:35:27 85° ENE 03:44:03 10° NNW
Cosmos 2034 Rocket 4.0 03:34:50 40° SW 03:36:58 62° W 03:43:07 10° N
Cosmos 1408 Rocket 3.9 03:32:57 10° N 03:37:18 62° E 03:39:33 27° SSE
CZ-2D R/B 2.6 03:32:12 10° NNE 03:37:35 58° E 03:40:28 27° S
IRS-1C 4.3 03:32:43 10° N 03:37:56 55° WNW 03:39:26 41° WSW
Cosmos 2150 Rocket 4.3 03:34:44 10° NNW 03:39:38 43° WSW 03:40:01 42° WSW
Cosmos 1766 Rocket 3.9 03:36:33 10° N 03:40:56 62° E 03:43:28 24° SSE
NOSS 2-1 (E) 4.3 03:43:08 34° WNW 03:44:01 38° NW 03:48:20 10° NNE
Nadezhda 4 Rocket 3.9 03:40:02 10° N 03:46:13 78° W 03:50:07 24° S
SL-16 R/B 2.5 03:41:26 15° SSE 03:46:43 88° E 03:52:55 10° NNW
Cosmos 1898 Rocket 4.1 03:42:29 10° NW 03:47:20 36° W 03:47:47 36° WSW
Cosmos 1697 Rocket 2.7 03:50:22 36° SW 03:52:41 72° WNW 03:58:22 10° NNE
Cosmos 1125 Rocket 4.2 03:48:31 10° N 03:53:38 53° ENE 03:58:41 10° SE
Cosmos 841 Rocket 3.4 03:51:36 37° SSW 03:53:46 80° WNW 03:59:04 10° NNE
NOSS 3-4 (A) 3.8 03:50:52 10° NW 03:57:46 61° WSW 04:05:04 10° SSE
NOSS 3-4 (C) 3.8 03:50:58 10° NW 03:57:55 62° WSW 04:05:14 10° SSE
Cosmos 1937 Rocket 3.9 03:53:46 10° NW 03:58:34 40° WSW 03:59:50 34° SW
GEOS 3 Rocket 3.7 03:54:29 10° SE 03:59:42 82° NE 04:04:53 10° NNW
Cosmos 1763 Rocket 3.6 03:57:36 35° SW 03:59:42 62° WNW 04:04:51 10° NNE
Cosmos 1980 Rocket 2.2 03:58:11 29° SSW 04:01:10 83° ESE 04:06:51 10° NNE
ATLAS CENTAUR R/B 2.8 04:00:50 25° W 04:02:57 35° NW 04:07:32 10° NNE
RESURS DK-1 4.4 04:00:11 10° N 04:03:51 30° ENE 04:07:30 10° ESE
Cosmos 2227 Rocket 3.5 04:02:26 10° NW 04:06:27 21° W 04:06:27 21° W
DELTA 2 R/B (2) 4.4 04:09:25 40° SE 04:09:25 40° SE 04:10:54 10° E
CZ-2D R/B 3.9 04:06:14 10° NNE 04:10:34 63° E 04:13:44 18° S
ARIANE 5 R/B 2.9 04:07:45 10° N 04:12:42 50° WNW 04:15:18 26° SW
Cosmos 2322 Rocket 3.3 04:08:13 11° S 04:13:10 40° ESE 04:18:21 10° NE
ISS -3.3 04:14:22 18° WNW 04:16:31 52° SW 04:19:41 10° SE
Resurs 1-4 Rocket 2.2 04:11:23 10° N 04:16:35 62° WNW 04:19:45 24° SSW
Cosmos 2026 Rocket 4.2 04:10:52 10° N 04:17:13 75° E 04:23:27 10° SSE
Cosmos 1461 3.9 04:13:38 10° NNW 04:17:38 46° NE 04:21:28 10° SE
Cosmos 371 Rocket 4.4 04:16:54 10° S 04:21:24 41° ESE 04:25:53 10° NE
Cosmos 1634 Rocket 4.0 04:18:23 18° SSW 04:23:09 71° W 04:29:28 10° N
UNK 4.2 04:23:05 22° SSW 04:25:36 40° W 04:30:02 10° NNW
Cosmos 1470 3.7 04:21:50 10° SSE 04:25:36 47° E 04:29:26 10° NNE
Cosmos 540 Rocket 3.6 04:22:45 17° S 04:26:46 78° ESE 04:31:57 10° NNE
Cosmos 2297 Rocket 3.4 04:23:53 10° NW 04:27:51 20° W 04:28:44 19° WSW
Cosmos 2195 Rocket 4.4 04:22:11 10° N 04:28:18 79° W 04:34:23 10° S
PSLV R/B 3.9 04:26:43 10° NNE 04:30:33 70° ESE 04:33:47 13° S
Cosmos 1378 4.3 04:27:41 10° NW 04:30:47 24° W 04:31:33 23° WSW
Cosmos 1092 Rocket 4.4 04:30:21 10° NNW 04:36:13 43° W 04:41:41 12° SSW
Thor Agena Rocket 4.1 04:31:55 10° SSE 04:36:51 59° ENE 04:41:48 10° N
CZ-4B R/B 3.4 04:35:46 10° NNE 04:39:37 54° E 04:43:16 10° S
Cosmos 2151 4.2 04:36:04 10° N 04:40:13 44° ENE 04:44:19 10° SSE
CZ-2C R/B 3.7 04:38:09 10° SSE 04:42:51 82° W 04:47:29 10° NNW
Cosmos 2360 4.3 04:40:39 16° SW 04:45:09 63° WNW 04:50:50 10° NNE
SL-16 R/B 2.4 04:40:53 10° SSW 04:46:30 72° ESE 04:52:09 10° NNE
UNKNOWN OBJECT B 3.7 04:44:58 10° N 04:48:27 31° WNW 04:50:51 16° SW
Cosmos 1500 Rocket 3.5 04:44:06 10° NNW 04:48:29 66° W 04:52:46 10° S
GPS 2-04 Rocket1 3.3 04:46:09 17° WSW 04:48:39 35° S 04:52:08 10° ESE
Abrixas 2.5 04:50:06 10° WNW 04:53:07 58° SW 04:56:07 10° SE
Cosmos 1743 Rocket 4.1 04:49:32 10° NNW 04:53:34 38° W 04:57:35 10° SSW
Milstar 3 Cent rocket 3.7 04:53:53 14° SW 04:57:56 29° S 05:05:27 10° ESE
Cosmos 2263 Rocket 3.2 04:55:47 10° NNW 05:01:13 51° ENE 05:06:36 10° SE
Okean O Rocket 1.9 04:57:09 10° N 05:01:25 52° WNW 05:05:42 10° SSW
Cosmos 1428 Rocket 4.4 04:55:58 10° N 05:02:07 76° W 05:08:10 10° S
GRACE-1 4.3 04:59:49 10° S 05:02:40 68° E 05:05:32 10° N
GRACE-2 4.3 05:00:15 10° S 05:03:05 68° E 05:05:57 10° N
SL-24 R/B - RUBIN 2 4.4 04:59:35 11° SW 05:05:01 71° NW 05:11:26 10° NNE
Cosmos 1953 3.9 05:02:41 12° WSW 05:05:10 20° WNW 05:08:10 10° NNW
CZ-4B R/B 3.3 05:01:35 10° N 05:07:05 69° WNW 05:12:27 10° SSW
PAYLOAD B 4.3 05:01:40 10° N 05:07:14 66° WNW 05:12:45 10° SSW
Cosmos 1733 3.2 05:04:39 10° SSW 05:08:23 61° W 05:12:10 10° N
Cosmos 1328 3.8 05:06:00 10° N 05:10:03 90° NW 05:14:04 10° S
Cosmos 2221 2.8 05:06:14 10° S 05:10:28 71° E 05:14:45 10° NNE
UNK 4.1 05:11:04 10° NW 05:13:04 21° NNE 05:14:47 10° ENE
CZ-2D R/B 3.7 05:13:22 10° NNW 05:17:10 20° WNW 05:20:57 10° WSW
Cosmos 2279 Rocket 4.4 05:11:22 10° SSW 05:17:19 46° WNW 05:23:19 10° N
Meteor 1-16 Rocket 4.5 05:11:54 10° S 05:17:49 84° E 05:23:45 10° N
ARGOS Delta rocket 4.2 05:15:07 10° N 05:20:06 54° WNW 05:24:47 10° SSW
MOZ.5/SAFIR/RUBIN 5/SL-8 4.4 05:18:32 10° SSW 05:22:50 35° W 05:27:08 10° NNW
Cosmos 372 Rocket 4.4 05:18:11 10° NW 05:22:53 38° WSW 05:27:34 10° S
ADEOS II 2.4 05:20:32 10° NNE 05:25:48 71° ESE 05:31:02 10° S
DELTA 2 R/B (1) 4.2 05:22:04 10° SW 05:27:22 46° SSE 05:32:41 10° E
